GFSGBSN_925_temp_222.txt.gz
Temp
13 14 15 15 15 16 16 16 16 16 16 16 16 16 17 17 17 17 18 19 19 21 21 20 21 20 22 20 22 25 25 25 25 24 24 23 23 23 23 23 23 23 23 24 23 22 22
13 13 14 15 15 16 16 16 16 16 16 16 16 16 16 17 16 17 17 18 19 20 21 21 21 20 20 20 24 25 24 24 24 24 24 23 23 23 23 23 23 22 22 21 22 23 23
13 13 13 14 15 15 15 16 16 16 16 16 16 16 16 16 16 16 17 19 19 20 21 21 21 19 18 20 24 24 25 25 24 24 24 25 24 23 23 22 22 22 22 22 23 24 24
13 13 13 14 14 14 15 14 15 15 15 15 15 15 15 15 16 16 17 18 20 20 21 21 20 18 19 23 24 24 25 25 25 25 25 25 24 23 23 22 21 22 21 21 24 23 24
13 14 14 14 14 14 14 14 14 14 14 15 15 15 15 15 15 16 17 19 20 20 20 20 18 18 19 23 23 24 25 24 25 25 25 24 23 21 21 20 19 19 21 22 22 22 24
14 14 14 14 14 14 14 14 14 14 15 15 15 15 15 15 15 16 18 20 20 19 19 18 17 18 21 23 23 23 24 24 23 23 22 22 17 18 17 18 19 21 21 21 21 22 22
14 14 14 14 14 14 14 14 14 14 14 14 15 15 15 15 15 15 17 20 16 17 18 20 20 19 19 22 23 22 23 22 21 21 20 20 19 18 18 19 21 21 21 20 20 21 22
14 14 14 14 14 14 14 14 14 14 14 14 14 14 14 14 14 15 16 14 17 17 14 16 16 17 19 20 19 20 22 21 20 19 19 18 17 18 19 20 20 20 20 20 20 21 22
15 14 14 14 14 14 14 14 14 14 14 14 14 14 14 14 14 15 15 17 17 16 15 16 17 18 20 19 18 19 20 19 20 18 18 17 20 20 19 20 20 20 20 21 22 21 20
14 15 14 15 14 14 14 14 14 14 14 14 14 14 13 13 14 14 15 16 17 17 13 18 19 20 19 19 21 20 21 21 20 18 17 18 19 20 21 20 19 21 21 22 22 21 20
14 14 15 15 15 15 15 14 15 14 14 14 14 13 13 13 14 13 15 16 17 17 14 21 20 22 20 20 21 21 21 22 20 20 19 20 21 20 20 20 21 21 23 22 22 20 19
12 13 14 15 15 15 15 14 15 14 14 14 14 13 13 12 13 15 16 17 17 13 14 19 20 20 20 21 21 21 21 22 21 20 19 19 21 20 21 21 21 22 22 18 16 16 17
12 12 12 14 15 15 15 15 15 15 14 14 14 13 13 13 13 16 15 14 13 11 17 19 19 19 20 19 20 20 20 19 18 19 20 21 21 22 22 23 22 20 19 17 18 17 17
12 13 12 12 14 14 15 15 15 15 15 14 13 13 12 13 15 16 15 14 13 14 15 18 20 19 19 19 19 19 19 18 18 20 18 19 20 21 22 22 21 19 19 17 19 18 18
10 9 11 12 12 12 14 14 15 14 14 14 13 12 11 12 13 15 13 14 13 13 15 17 19 19 18 20 20 19 17 18 18 18 19 18 19 21 21 22 22 20 19 19 19 17 15
7 9 10 11 12 12 12 13 14 14 14 14 12 11 12 13 13 13 13 15 14 15 16 17 18 18 17 18 18 17 17 19 20 18 20 20 19 20 22 23 22 20 19 18 16 18 17
6 7 7 8 9 10 11 12 12 13 13 13 12 13 12 14 12 12 13 14 15 14 16 16 16 17 17 17 17 16 18 21 19 18 18 18 18 18 20 19 20 19 19 18 18 15 17
6 6 6 7 7 8 9 11 12 12 12 11 12 14 12 12 13 13 14 15 15 15 14 15 16 16 16 17 17 16 17 19 18 17 18 17 15 15 19 19 17 19 18 18 18 17 13
6 6 6 6 7 7 8 8 10 11 11 11 13 13 12 13 15 14 15 15 15 14 16 14 14 15 15 16 17 16 17 19 16 17 16 15 15 15 17 18 16 17 16 18 16 15 18
5 6 6 6 7 6 7 7 8 10 10 11 11 12 11 13 15 15 16 15 14 16 16 15 16 15 15 15 15 17 15 17 15 17 15 17 15 16 18 18 17 16 16 16 16 13 17
5 5 6 6 6 7 7 7 7 8 9 10 10 10 11 11 14 15 16 16 15 15 16 16 16 16 16 16 16 16 15 15 14 14 15 16 17 15 16 17 17 18 18 16 17 18 16
5 5 5 6 6 6 6 7 7 7 8 9 8 9 9 11 15 14 15 16 16 15 15 14 15 16 16 16 17 17 17 15 17 12 14 13 17 15 16 17 16 16 17 17 17 18 17
5 5 5 5 5 6 6 6 7 7 7 7 6 6 9 13 14 14 15 16 16 17 16 17 16 16 15 17 17 18 18 18 16 16 13 13 14 13 16 16 16 14 16 17 17 18 18
5 5 5 5 5 5 6 6 6 7 6 7 6 7 9 11 13 14 15 16 16 16 16 16 16 15 17 13 13 11 11 12 14 15 15 12 14 14 15 14 15 16 16 16 16 17 18
5 5 5 5 5 5 5 6 6 6 6 6 5 6 7 8 11 12 13 15 16 16 15 16 15 16 15 14 11 13 10 11 13 14 14 15 14 14 14 14 16 16 14 14 14 16 16
5 5 5 5 5 5 5 5 5 6 6 5 4 4 4 7 9 10 12 12 13 13 12 11 9 11 12 12 10 14 14 13 13 13 14 14 15 15 11 13 15 15 15 15 16 14 16
5 5 5 5 5 5 5 5 5 6 6 5 4 4 2 4 5 7 9 10 12 12 12 9 9 10 12 11 12 12 14 14 14 13 11 13 13 14 15 13 12 14 15 15 14 16 15
5 5 5 5 5 5 5 5 5 5 5 5 4 4 3 2 3 5 6 7 8 10 12 8 10 8 8 12 12 9 10 11 11 12 12 13 13 13 13 14 14 13 14 14 15 12 13
5 5 5 5 5 5 5 5 5 5 5 5 5 3 3 3 3 4 5 5 5 6 6 7 8 8 11 11 10 9 9 9 11 12 10 12 13 12 13 13 13 13 14 13 13 13 12

GFSGBSN_925_temp_228.txt.gz
Temp
14 13 13 13 13 15 15 15 16 16 16 16 17 17 17 17 17 18 18 19 20 20 20 20 21 22 24 28 28 25 24 24 24 25 27 28 29 29 29 29 29 28 30 30 30 30 30
14 14 13 13 13 14 15 15 15 16 16 16 16 16 17 17 17 18 18 19 19 21 20 21 21 21 24 27 25 24 24 24 25 26 27 28 28 29 29 29 28 28 29 29 30 30 31
14 14 14 13 13 13 15 15 15 16 16 16 16 16 17 17 17 17 19 19 19 20 21 21 21 21 24 27 25 24 24 26 25 26 28 27 27 28 28 28 28 28 27 30 30 31 30
13 14 14 13 13 13 14 15 15 15 15 16 16 16 16 17 17 17 18 19 20 20 21 21 21 20 26 24 23 24 25 25 25 25 26 26 26 27 27 27 27 28 28 29 30 30 29
13 14 14 13 13 13 13 14 15 15 15 15 16 16 16 16 17 17 18 19 19 20 20 20 20 22 27 23 24 25 25 27 26 25 25 25 26 27 26 27 28 28 30 29 30 30 30
12 13 14 14 13 13 13 14 15 15 15 15 16 16 15 16 16 16 18 18 19 18 18 18 18 23 25 27 25 24 25 25 26 26 26 26 27 26 27 28 28 30 28 29 29 30 29
12 12 13 14 13 12 13 14 14 15 15 15 15 15 15 15 15 16 18 18 21 22 20 26 26 25 25 25 23 25 25 25 26 26 25 25 26 26 28 28 27 27 27 28 29 29 27
10 12 12 13 13 12 13 13 14 14 14 14 14 14 14 15 15 15 16 20 21 19 23 23 23 23 22 23 25 25 23 25 25 25 25 24 25 27 27 25 25 26 26 28 29 28 27
11 13 12 13 13 12 12 14 14 14 14 14 14 14 14 14 14 15 16 19 17 17 22 23 22 23 23 22 24 26 25 25 25 25 25 25 26 24 24 25 24 26 26 27 27 28 29
11 13 12 12 13 13 12 13 14 14 14 14 14 14 14 14 14 15 18 17 16 16 23 25 22 23 21 23 23 24 25 26 24 25 24 25 26 23 24 25 25 26 27 26 27 27 28
10 12 12 12 12 14 13 14 14 14 14 14 14 13 13 14 15 17 17 16 17 17 22 24 22 21 22 23 24 23 24 25 25 24 24 26 24 24 24 26 25 27 26 26 27 27 26
11 11 12 12 12 13 14 14 14 14 14 14 13 13 13 12 13 16 16 15 17 21 21 23 22 21 21 22 23 23 24 25 25 24 24 25 25 25 26 26 26 26 26 26 26 27 25
11 12 12 11 12 12 14 14 14 14 14 14 13 13 13 13 17 15 15 18 20 20 21 23 23 22 23 23 22 24 23 23 26 24 25 26 25 26 26 26 25 25 26 26 26 25 27
11 12 12 12 12 12 14 14 14 14 13 13 13 12 12 13 15 16 16 19 18 22 23 22 23 22 23 23 23 23 24 24 25 25 26 27 26 26 26 27 27 26 27 26 25 26 27
10 12 11 12 12 12 14 14 14 14 13 13 12 11 11 12 15 14 19 17 21 22 23 22 22 23 23 23 23 23 24 25 26 25 26 26 26 26 26 26 27 26 25 27 25 26 24
9 11 11 11 11 12 14 14 14 13 13 13 11 11 12 12 14 14 16 18 21 22 22 23 24 24 24 23 22 23 23 25 25 26 27 26 25 26 26 26 25 25 27 25 25 23 24
7 10 10 11 11 11 14 14 14 13 13 12 12 12 12 12 13 15 16 18 20 20 21 22 24 24 24 23 24 23 25 25 25 25 26 26 25 25 24 25 27 25 25 25 26 26 24
5 8 9 10 11 12 12 13 14 13 13 12 12 13 12 12 13 15 16 19 20 20 19 20 21 23 23 22 22 24 24 26 25 23 23 25 24 24 26 26 24 25 26 27 25 24 25
4 5 6 7 9 11 12 12 13 13 13 12 13 13 11 13 13 14 16 18 19 19 20 20 20 21 22 22 22 23 23 23 22 23 23 22 22 23 24 25 23 23 25 25 26 25 23
4 4 5 6 7 8 10 11 12 12 13 13 13 11 12 13 17 17 16 16 17 19 19 20 21 20 20 21 22 23 22 21 19 21 15 20 24 24 23 24 26 25 24 25 24 23 23
4 4 4 5 6 8 8 9 11 11 12 13 12 12 13 13 13 17 18 17 16 16 18 20 20 21 20 21 21 21 22 21 17 17 19 21 22 23 24 24 24 24 24 25 24 24 23
4 5 4 5 5 6 7 7 8 9 10 11 10 11 11 14 15 15 16 16 18 16 17 16 18 20 20 20 21 21 20 20 20 20 20 21 20 20 20 22 22 22 23 23 23 24 24
5 5 5 5 5 5 5 6 7 7 9 8 7 8 11 12 12 14 15 16 16 17 16 17 18 19 19 20 21 21 19 18 18 20 20 18 17 17 17 20 20 19 21 22 23 24 24
5 5 5 5 5 5 5 5 6 6 7 7 7 9 12 11 12 13 15 16 16 17 17 16 17 17 19 21 20 16 13 14 15 16 18 17 16 15 15 15 15 20 24 23 22 23 23
5 5 5 5 5 5 5 5 5 5 6 6 6 7 9 12 13 14 15 15 17 17 16 17 16 17 19 18 12 12 11 12 14 15 16 17 16 14 14 15 17 19 22 21 20 22 23
5 5 5 5 5 5 5 5 5 5 5 5 5 6 6 9 9 10 14 14 15 16 16 15 18 16 16 14 11 13 13 14 15 15 17 17 16 14 12 14 16 21 22 24 23 20 23
5 5 5 5 5 5 5 5 5 5 5 5 5 6 5 5 6 7 10 11 13 13 13 13 15 13 14 12 12 13 14 16 15 17 15 14 14 14 14 14 16 22 23 21 18 22 24
4 5 5 5 5 5 5 5 5 5 5 5 5 5 5 4 4 6 6 7 8 8 13 9 11 10 12 13 13 11 13 14 15 19 20 16 14 14 14 14 15 21 22 19 22 23 21
3 4 5 5 5 5 5 5 5 5 5 5 4 5 6 6 4 4 5 5 6 5 6 6 7 9 8 11 13 11 11 12 14 16 20 16 17 17 16 16 20 21 21 22 21 22 20

GFSGBSN_925_temp_231.txt.gz
Temp
13 14 14 14 13 13 15 15 15 15 16 16 16 16 17 17 17 18 18 18 19 19 19 21 22 23 24 29 32 26 26 25 25 27 29 31 31 32 32 33 33 32 33 33 34 33 33
11 12 14 14 14 13 13 14 16 15 15 16 16 16 17 17 17 18 18 19 19 20 19 21 22 22 25 29 29 26 26 26 28 29 30 31 31 32 31 32 32 33 32 33 33 33 33
10 11 12 14 14 14 13 14 15 15 15 15 16 16 16 17 17 17 18 18 19 20 21 21 22 21 26 29 29 28 27 28 29 29 31 30 30 30 31 30 32 31 30 32 33 33 33
10 11 12 13 14 14 14 13 14 15 15 15 16 16 16 16 17 17 18 18 19 20 21 21 22 22 27 27 28 28 28 28 28 28 29 29 29 29 30 31 30 30 31 31 35 34 33
9 10 11 13 13 14 14 14 14 15 15 15 15 16 16 16 16 17 17 18 19 20 21 20 22 24 28 25 27 28 28 29 29 28 28 27 28 29 30 29 30 31 31 32 33 33 34
8 10 10 11 13 13 14 14 13 15 15 15 15 15 16 16 16 16 17 18 19 19 19 19 22 25 28 29 29 28 28 28 29 29 29 28 29 28 29 30 30 32 32 32 32 34 32
8 9 10 10 12 13 14 14 13 14 14 15 15 15 16 16 15 16 17 21 23 23 22 27 29 29 29 28 26 28 28 28 29 28 27 30 28 29 30 31 31 31 31 31 33 33 31
7 7 9 10 11 13 13 14 13 13 14 14 15 15 15 15 15 15 15 22 25 21 25 28 27 28 28 27 27 28 28 27 28 27 30 29 28 30 31 31 29 29 29 30 32 33 31
7 7 8 10 11 12 12 13 13 13 14 14 14 14 14 14 14 14 18 22 21 21 24 27 28 28 28 26 26 29 28 28 28 28 29 28 31 28 28 29 27 29 29 30 30 32 31
7 7 8 9 10 11 12 12 13 14 14 14 14 14 14 13 13 18 19 20 20 19 24 28 25 26 25 26 26 29 29 29 28 28 30 29 31 27 27 28 29 28 31 30 29 29 30
6 6 8 8 10 11 12 13 12 13 14 14 14 13 13 14 18 19 22 20 19 20 23 29 25 25 25 25 26 25 27 28 27 28 27 29 28 27 27 28 29 29 29 29 29 29 30
6 6 8 7 9 11 12 13 12 13 14 14 14 13 13 13 15 19 18 18 19 22 23 26 25 23 23 24 26 25 26 27 28 28 28 29 29 29 29 29 29 29 28 28 29 29 27
5 6 8 7 10 11 12 12 12 13 14 13 13 13 12 14 18 18 17 19 21 22 26 26 25 24 24 24 25 25 25 26 27 26 27 29 29 29 29 28 28 28 28 28 27 28 28
5 6 6 7 10 12 12 12 12 12 14 13 13 12 12 15 17 16 17 20 20 25 26 27 26 25 24 25 25 25 25 26 28 29 29 30 29 29 29 29 29 28 29 28 26 28 30
4 5 5 8 11 11 12 12 12 12 13 13 12 11 12 14 15 15 19 19 22 24 27 27 26 24 25 26 26 25 25 26 29 28 28 30 29 30 29 30 30 29 27 30 28 28 27
3 4 4 8 10 10 11 12 12 12 13 13 12 12 13 14 14 16 18 20 23 26 27 27 25 27 26 26 24 25 25 27 28 29 29 29 27 30 30 29 29 29 30 27 28 25 25
3 4 4 8 10 10 11 11 12 11 13 12 12 12 14 13 13 15 18 20 23 26 25 25 26 27 27 27 26 25 27 28 29 28 29 29 28 28 28 27 28 28 27 27 28 28 26
3 3 3 6 10 10 11 11 11 12 13 12 13 14 13 12 14 18 19 21 22 24 23 23 23 26 27 27 27 26 26 28 28 28 26 28 27 26 28 30 30 29 28 29 27 26 28
3 3 3 5 11 10 11 11 11 12 13 13 13 15 13 14 15 18 19 20 22 23 24 22 22 24 26 26 24 26 27 28 27 26 26 26 25 25 26 28 29 26 27 28 28 27 26
2 3 3 4 9 10 11 10 10 13 12 14 13 12 12 13 19 19 19 20 20 23 23 23 23 24 24 24 25 25 26 25 24 24 16 22 25 25 25 26 28 27 28 27 27 25 26
3 3 3 4 6 10 10 10 10 13 12 15 14 14 14 13 14 18 20 20 20 20 22 22 22 22 22 22 24 24 25 24 20 19 21 23 23 25 25 26 27 27 27 27 26 27 25
4 3 3 4 5 7 9 10 10 11 12 14 13 16 17 18 16 17 18 19 20 21 21 20 21 22 22 22 23 23 23 23 23 22 22 23 22 23 23 25 25 24 25 26 26 26 27
4 3 3 3 4 5 6 8 9 11 11 12 10 15 18 15 15 15 17 19 20 21 21 22 21 21 22 22 23 23 21 23 24 22 23 22 21 19 18 22 22 20 23 24 25 25 25
5 5 4 3 4 4 5 6 7 7 9 8 9 13 14 13 17 15 17 18 19 20 21 21 21 20 22 20 22 21 19 19 19 19 21 19 19 17 15 16 16 22 25 26 25 26 26
5 5 5 4 4 4 4 5 5 6 6 7 6 9 11 13 14 16 16 17 18 19 18 20 20 21 21 19 12 13 12 13 14 16 18 19 16 14 14 15 18 20 23 24 24 25 26
5 5 5 5 4 4 5 5 5 5 6 6 6 7 7 11 11 14 14 16 15 15 16 17 18 18 17 15 11 12 13 14 15 15 17 17 16 14 12 14 16 22 25 25 25 22 25
4 5 5 5 5 5 5 5 5 5 5 5 5 6 6 6 7 7 11 13 13 13 13 13 15 13 14 13 13 12 13 16 16 17 16 16 15 14 14 14 16 22 24 25 21 23 27
3 4 5 5 5 5 5 5 5 5 5 6 4 5 5 4 5 6 6 8 9 11 13 10 13 13 13 13 12 12 13 14 15 19 20 16 14 14 14 14 15 22 23 22 24 25 26
3 4 4 5 5 5 5 5 5 5 5 6 5 5 5 5 4 4 5 5 6 6 7 6 8 8 7 11 12 12 11 13 16 17 21 18 16 17 17 17 20 22 23 24 25 25 25

GFSGBSN_925_temp_234.txt.gz
Temp
10 11 11 13 14 14 14 14 14 16 16 16 16 16 16 17 17 17 18 18 18 19 19 20 21 22 24 28 30 27 27 27 26 27 29 31 31 31 31 33 34 33 33 34 35 35 34
9 10 10 11 12 13 14 14 14 15 16 16 16 16 16 16 17 17 17 17 18 19 19 20 21 22 22 28 30 27 27 27 28 29 30 31 31 32 31 32 32 34 34 33 34 34 34
9 9 10 10 12 12 13 14 14 14 15 16 16 16 16 16 16 17 17 17 18 19 20 20 21 21 24 28 30 29 28 29 30 30 32 32 31 31 31 31 33 32 31 32 33 33 33
9 9 9 10 10 12 12 13 14 14 15 15 15 16 16 16 16 17 17 18 19 19 20 21 21 20 25 29 30 30 30 29 30 30 30 30 30 30 29 31 31 31 31 30 33 34 34
8 8 8 9 10 11 12 13 14 14 14 15 15 15 16 16 16 17 17 18 19 19 21 20 20 22 26 28 28 29 29 30 30 30 30 29 29 29 29 29 29 30 29 31 33 35 35
8 8 8 8 9 10 10 12 13 14 14 15 15 15 15 16 16 16 17 18 20 19 21 19 22 25 27 29 30 30 29 30 31 30 30 29 29 28 29 28 28 31 31 32 32 35 34
8 8 8 8 8 9 10 11 13 13 14 14 15 15 15 15 16 16 16 19 21 22 21 26 28 27 30 30 28 29 30 30 30 29 28 29 29 28 30 31 31 31 31 31 33 35 33
7 7 7 7 8 8 9 11 12 13 14 14 14 15 15 15 15 15 15 20 25 22 22 26 26 28 30 30 28 29 30 28 28 27 29 29 28 30 31 31 31 31 30 30 32 33 33
7 7 7 7 7 7 8 10 11 13 13 14 14 14 14 14 13 13 16 20 23 22 23 26 28 29 29 30 28 28 30 29 28 28 29 28 30 31 30 30 30 30 29 29 30 32 33
7 7 7 7 7 7 8 9 11 12 12 13 14 14 14 13 12 15 18 19 21 21 22 26 28 29 29 30 27 29 30 29 28 27 28 29 31 31 29 29 30 29 31 31 30 30 29
6 6 7 7 7 7 7 8 10 11 12 13 14 14 13 13 18 18 20 21 21 20 21 30 29 28 29 26 28 28 28 29 27 29 29 29 30 29 29 29 30 29 30 30 30 29 29
6 6 6 6 7 6 7 8 9 11 12 12 13 13 13 13 14 20 21 21 20 20 21 28 26 25 25 25 27 27 28 29 29 27 29 29 32 30 30 31 30 31 29 29 29 29 27
5 5 5 6 6 6 6 7 8 10 12 12 13 13 13 14 16 18 19 19 19 20 27 28 25 26 25 25 26 26 25 25 26 25 26 29 29 30 30 29 30 29 28 27 27 27 27
5 5 5 5 5 5 6 7 9 10 12 12 12 13 12 14 16 18 18 18 19 23 25 30 29 26 25 26 25 26 25 25 26 28 29 29 28 30 31 29 29 28 28 27 26 27 28
5 5 5 5 5 5 6 7 9 10 12 12 11 11 11 13 17 17 17 17 20 23 27 26 28 26 25 26 26 25 25 26 27 27 27 29 30 33 31 30 30 29 28 30 28 28 27
5 5 5 4 4 4 5 6 9 10 11 11 11 12 13 13 15 15 15 18 21 24 27 28 26 27 26 26 25 25 25 27 27 29 28 28 27 31 31 31 30 29 30 28 28 25 25
5 5 5 4 4 4 5 8 9 11 11 11 12 12 14 14 14 14 15 18 21 25 26 26 26 27 27 27 27 26 26 28 28 28 29 28 27 28 30 28 28 29 28 28 28 27 25
5 4 4 4 4 4 5 6 10 11 11 11 13 13 14 13 13 16 17 19 20 23 26 26 26 27 27 27 28 26 26 27 29 28 27 27 27 26 28 30 30 30 29 29 26 26 27
5 4 4 3 3 4 5 5 10 10 10 12 14 16 13 14 13 15 17 19 21 21 23 25 25 25 26 25 25 27 27 28 28 28 25 26 25 24 26 28 29 28 29 28 28 27 25
5 5 3 3 3 4 4 6 10 11 11 12 13 12 12 13 17 17 17 18 19 22 23 25 24 24 24 23 26 26 26 26 26 26 18 22 25 26 24 26 28 27 29 29 28 25 25
5 4 3 3 3 4 4 6 10 10 11 12 13 14 14 13 14 18 19 19 19 20 22 24 24 23 23 22 24 24 25 23 22 17 22 22 23 25 26 27 27 27 27 27 27 27 26
5 5 3 2 3 4 4 6 10 10 11 11 13 15 15 16 15 16 18 20 20 21 22 21 22 24 23 22 23 22 23 22 23 21 21 23 22 23 23 25 25 25 26 26 26 26 27
4 5 4 3 3 3 4 8 10 10 11 12 14 18 17 15 15 15 17 19 20 21 21 23 22 22 22 22 22 22 22 22 23 24 23 22 21 21 20 23 23 20 23 24 25 26 26
4 4 4 3 3 3 5 10 10 10 11 13 14 17 15 16 15 16 17 19 20 21 21 22 22 22 23 20 21 21 20 20 22 22 22 22 21 20 18 18 16 22 25 25 25 25 25
3 4 4 4 3 3 5 9 10 10 10 11 13 13 16 15 17 17 17 18 19 20 20 21 22 23 20 20 15 12 15 17 19 22 21 21 19 15 15 16 18 20 22 22 23 24 26
3 4 5 4 3 3 4 5 7 9 10 10 11 12 13 15 14 18 18 18 17 18 18 20 21 22 18 16 12 14 15 17 18 18 21 20 19 15 12 14 16 21 24 25 23 20 24
3 3 5 4 3 3 4 5 5 6 7 9 6 9 11 8 8 10 15 15 17 17 17 18 18 18 15 14 14 14 15 17 15 16 15 16 16 15 15 14 16 21 23 24 20 23 25
3 3 5 5 4 4 4 4 5 6 6 8 5 6 8 5 6 7 7 11 12 16 15 12 14 12 13 15 14 11 12 14 15 19 18 15 14 14 15 14 15 21 22 20 22 23 24
3 3 4 5 5 4 4 3 4 5 6 7 5 5 7 5 4 5 5 5 6 6 8 6 9 8 7 13 11 11 11 13 15 15 19 15 16 16 16 17 19 22 22 23 21 19 19

GFSGBSN_925_temp_237.txt.gz
Temp
9 9 10 11 11 12 13 13 14 14 14 15 16 16 16 16 16 17 17 18 18 19 19 19 20 21 23 22 26 28 27 27 27 27 27 26 27 27 27 27 27 28 29 30 30 29 31
8 9 9 10 10 11 11 13 13 14 14 14 15 16 16 16 16 16 17 18 18 18 19 20 20 21 20 22 28 29 27 26 27 27 28 28 27 29 28 28 26 28 29 28 29 29 29
8 9 9 10 10 11 11 11 12 13 13 14 14 15 15 16 16 16 17 17 18 18 19 20 19 19 19 22 29 28 28 28 29 29 28 30 29 27 26 25 28 28 27 27 28 29 28
8 8 8 9 9 10 11 11 12 12 13 13 14 14 15 16 16 16 17 17 18 19 19 20 19 18 18 27 28 28 29 29 29 29 30 30 29 27 27 26 26 26 26 25 28 28 30
8 8 8 8 9 9 10 10 11 12 12 13 13 14 14 15 16 16 16 17 18 19 20 20 19 18 20 27 28 29 29 29 29 30 30 29 28 26 25 24 23 25 23 25 27 29 29
8 8 8 8 8 9 9 9 11 11 12 13 13 14 14 14 15 16 16 17 20 19 20 19 19 20 23 26 29 29 29 29 29 28 28 27 24 23 23 22 22 24 25 25 26 29 29
7 7 8 8 8 8 8 9 10 11 11 12 13 13 14 14 15 15 16 18 19 17 18 20 22 23 27 28 28 29 29 29 29 27 25 25 23 22 23 24 26 26 26 26 27 29 29
7 7 7 8 8 7 8 8 9 10 10 11 12 13 13 13 14 14 14 15 20 21 19 22 23 23 25 27 27 27 29 27 26 24 25 24 23 25 28 28 27 27 26 25 27 29 29
7 7 7 7 7 7 7 8 8 9 10 10 12 12 13 13 13 13 14 17 20 20 18 22 24 25 25 27 26 26 26 26 25 24 25 24 26 28 28 28 27 26 26 26 26 28 28
7 6 7 7 7 7 7 7 8 8 9 10 11 12 13 12 11 13 14 19 19 19 16 22 24 25 26 27 25 28 28 26 25 25 25 25 27 28 28 27 28 25 28 28 27 26 24
6 6 6 6 7 7 7 7 7 8 8 9 10 12 13 12 16 14 17 20 19 19 16 25 26 28 27 25 26 26 28 25 25 25 25 25 27 27 27 27 28 26 28 28 27 24 24
6 6 6 6 6 6 7 7 7 7 8 8 9 12 12 11 14 17 19 20 20 16 16 24 24 24 25 25 25 26 26 26 26 25 25 25 27 28 28 29 28 28 28 26 25 24 22
6 5 5 6 6 6 6 6 6 7 7 8 8 11 12 11 12 19 18 18 15 15 23 25 23 24 23 23 23 24 24 23 22 22 23 25 25 27 28 27 28 27 25 21 22 22 21
5 5 5 5 5 6 6 6 6 6 7 8 9 11 12 12 13 17 17 16 14 19 22 27 25 23 22 23 23 23 22 22 23 23 23 23 24 27 27 26 26 25 23 21 23 22 23
5 5 5 5 5 5 5 6 5 6 6 7 9 10 11 12 14 15 15 15 16 20 22 23 25 23 22 24 23 23 22 23 23 24 23 24 26 29 29 28 27 26 23 25 23 23 22
5 5 5 5 5 5 5 5 6 5 6 7 6 10 11 12 14 14 14 16 18 21 24 23 22 23 22 23 22 22 22 23 24 25 24 24 25 28 28 27 27 27 27 24 22 22 21
4 5 5 5 5 5 5 5 5 5 5 7 7 11 12 12 13 13 14 15 18 21 21 21 22 23 23 23 23 22 23 24 24 25 25 24 24 24 27 26 25 25 24 25 23 22 21
4 4 5 5 5 5 5 4 4 5 5 6 8 12 11 12 12 13 14 16 18 19 21 21 22 22 22 23 23 23 23 25 25 25 25 24 22 21 24 27 27 25 25 23 22 22 21
4 4 4 4 5 5 4 4 4 4 5 6 9 11 11 12 13 13 15 16 18 19 19 21 21 22 24 23 22 23 24 25 25 24 24 23 21 20 22 24 26 25 25 25 24 22 23
4 4 4 5 5 4 4 4 4 4 4 5 10 10 12 12 14 15 14 15 16 19 19 20 21 21 21 21 22 23 24 21 24 20 18 22 22 20 20 22 24 24 24 24 23 20 22
4 4 4 5 5 4 4 4 4 4 4 5 11 11 12 12 12 14 15 16 16 17 18 20 20 20 21 20 21 20 23 22 20 18 21 21 20 23 22 23 23 22 23 23 22 23 22
3 4 5 5 5 4 4 3 3 4 4 6 10 11 12 12 13 14 15 16 16 17 18 17 19 20 21 20 19 21 22 21 22 19 20 20 19 22 21 22 22 21 22 22 23 23 23
2 3 4 4 4 4 3 3 3 4 4 6 10 11 13 13 13 13 14 16 17 17 18 19 19 19 20 21 20 20 20 20 21 19 18 19 17 16 19 21 19 19 20 22 22 23 23
3 3 3 4 4 4 3 3 3 4 4 5 11 12 13 12 13 14 15 16 17 17 17 18 19 19 19 18 18 17 17 19 18 18 19 17 17 15 16 16 15 20 23 22 20 21 21
3 3 3 4 4 4 3 3 4 5 5 6 11 12 13 12 13 14 15 16 17 18 17 18 19 20 18 17 13 12 12 17 19 17 17 17 16 12 12 13 18 19 21 20 20 21 22
3 3 3 3 4 3 2 5 4 6 7 9 11 14 12 13 13 15 15 15 15 15 14 18 18 18 17 14 11 13 14 16 16 17 19 18 17 16 12 13 17 20 21 21 21 17 20
3 3 3 4 4 2 3 3 8 8 13 11 11 12 9 8 7 10 14 14 16 16 15 15 17 15 16 13 12 13 14 16 16 17 15 16 15 16 16 15 17 19 21 21 18 18 17
4 3 3 4 4 2 3 4 8 9 10 9 7 10 8 5 5 6 7 11 13 15 15 13 14 11 10 13 13 11 11 14 16 18 17 15 14 15 16 15 15 19 19 18 16 15 14
4 3 3 4 4 3 3 4 5 7 9 8 5 7 9 5 4 5 5 5 6 7 9 7 10 10 8 13 12 11 10 10 14 15 18 16 17 16 16 16 18 18 13 13 14 14 14